This is the latest recevied weather packets stored in our database for station/object OE6PLD-13. If no packets are shown the sender has not sent any weather packets the latest 10 day(s).
| Time | Temp. | Humidity | Pressure | Rain* | Wind** | Luminosity | Snow |
|---|---|---|---|---|---|---|---|
| 1777797406 | 20.56° C | 49% | 1010.8 hPa | 0.76 mm | - | 694 W/m² | - |
| 1777797222 | 20.56° C | 49% | 1010.8 hPa | 0.76 mm | - | 688 W/m² | - |
| 1777797039 | 20.56° C | 50% | 1010.8 hPa | 0.76 mm | - | 679 W/m² | - |
| 1777796856 | 20.56° C | 49% | 1010.7 hPa | 0.76 mm | - | 666 W/m² | - |
| 1777796672 | 20° C | 50% | 1010.9 hPa | 0.76 mm | - | 648 W/m² | - |
| 1777796489 | 20° C | 52% | 1011 hPa | 0.76 mm | - | 648 W/m² | - |
| 1777796306 | 20° C | 50% | 1010.7 hPa | 0.76 mm | - | 691 W/m² | - |
| 1777796122 | 20° C | 50% | 1011.1 hPa | 0.76 mm | - | 725 W/m² | - |
| 1777795939 | 20.56° C | 49% | 1010.7 hPa | 0.76 mm | - | 729 W/m² | - |
| 1777795756 | 20° C | 50% | 1010.9 hPa | 0.76 mm | - | 709 W/m² | - |
| 1777795572 | 20.56° C | 50% | 1010.9 hPa | 0.76 mm | - | 696 W/m² | - |
| 1777795389 | 20° C | 50% | 1010.9 hPa | 0.76 mm | - | 661 W/m² | - |
| 1777795205 | 20° C | 51% | 1011 hPa | 0.76 mm | - | 630 W/m² | - |
| 1777795022 | 20° C | 50% | 1011 hPa | 0.76 mm | - | 621 W/m² | - |
| 1777794839 | 19.44° C | 50% | 1010.9 hPa | 0.76 mm | - | 604 W/m² | - |
| 1777794655 | 19.44° C | 50% | 1011.1 hPa | 0.76 mm | - | 588 W/m² | - |
| 1777794472 | 20° C | 49% | 1010.9 hPa | 0.76 mm | - | 569 W/m² | - |
| 1777794289 | 20° C | 48% | 1010.9 hPa | 0.76 mm | - | 569 W/m² | - |
| 1777794105 | 19.44° C | 50% | 1010.8 hPa | 0.76 mm | - | 581 W/m² | - |
| 1777793922 | 18.89° C | 52% | 1010.8 hPa | 0.76 mm | - | 635 W/m² | - |
| 1777793739 | 18.89° C | 52% | 1010.8 hPa | 0.76 mm | - | 645 W/m² | - |
| 1777793555 | 18.89° C | 51% | 1010.9 hPa | 0.76 mm | - | 648 W/m² | - |
| 1777793372 | 18.89° C | 52% | 1010.8 hPa | 0.76 mm | - | 635 W/m² | - |
| 1777793189 | 18.89° C | 52% | 1010.8 hPa | 0.76 mm | - | 613 W/m² | - |
| 1777793005 | 18.89° C | 53% | 1010.9 hPa | 0.76 mm | - | 574 W/m² | - |
* Rain latest hour (hover to see other rain measurements)
** Current wind speed in m/s (hover to see current wind gust speed)